This is the latest recevied weather packets stored in our database for station/object YO2KCB-10. If no packets are shown the sender has not sent any weather packets the latest 10 day(s).
| Time | Temp. | Humidity | Pressure | Rain* | Wind** | Luminosity | Snow |
|---|---|---|---|---|---|---|---|
| 1777612823 | 7.78° C | 35% | 1024.1 hPa | - | - | - | - |
| 1777611623 | 6.67° C | 34% | 1024.1 hPa | - | - | - | - |
| 1777610423 | 6.11° C | 34% | 1023.8 hPa | - | - | - | - |
| 1777609223 | 6.11° C | 34% | 1023.8 hPa | - | - | - | - |
| 1777608023 | 5.56° C | 33% | 1023.7 hPa | - | - | - | - |
| 1777606822 | 6.11° C | 33% | 1023.8 hPa | - | - | - | - |
| 1777605622 | 6.11° C | 32% | 1023.6 hPa | - | - | - | - |
| 1777604422 | 6.11° C | 32% | 1023.5 hPa | - | - | - | - |
| 1777603222 | 6.67° C | 32% | 1023.5 hPa | - | - | - | - |
| 1777602022 | 6.67° C | 33% | 1023.5 hPa | - | - | - | - |
| 1777600821 | 7.22° C | 32% | 1023.5 hPa | - | - | - | - |
| 1777599621 | 7.22° C | 32% | 1023.6 hPa | - | - | - | - |
| 1777598421 | 7.78° C | 33% | 1023.7 hPa | - | - | - | - |
| 1777597221 | 7.78° C | 32% | 1023.7 hPa | - | - | - | - |
| 1777596021 | 7.78° C | 33% | 1023.7 hPa | - | - | - | - |
| 1777594821 | 8.33° C | 35% | 1023.6 hPa | - | - | - | - |
| 1777593620 | 8.33° C | 33% | 1023.6 hPa | - | - | - | - |
| 1777592420 | 8.89° C | 32% | 1023.6 hPa | - | - | - | - |
| 1777591220 | 8.89° C | 31% | 1023.6 hPa | - | - | - | - |
| 1777590020 | 9.44° C | 31% | 1023.6 hPa | - | - | - | - |
| 1777588820 | 9.44° C | 32% | 1023.6 hPa | - | - | - | - |
| 1777587620 | 10° C | 33% | 1023.6 hPa | - | - | - | - |
| 1777586419 | 10.56° C | 30% | 1023.5 hPa | - | - | - | - |
| 1777585219 | 10.56° C | 29% | 1023.5 hPa | - | - | - | - |
| 1777584019 | 11.11° C | 29% | 1023.2 hPa | - | - | - | - |
* Rain since midnight (hover to see other rain measurements)
** Current wind speed in m/s (hover to see current wind gust speed)